Satellite: ISS
Catalog number: 25544
Epoch time:      09338.08408725
Element set:     104
Inclination:      051.6460 deg
RA of node:       153.7487 deg
Eccentricity:    0.0007522
Arg of perigee:   048.4567 deg
Mean anomaly:     051.2042 deg
Mean motion:   15.76292799 rev/day
Decay rate:     1.4536e-04 rev/day^2
Epoch rev:           63272
Checksum:              306

Satellite: CO-58
Catalog number: 28895
Epoch time:      09336.68118465
Element set:    0457
Inclination:      098.0384 deg
RA of node:       222.3595 deg
Eccentricity:    0.0017749
Arg of perigee:   177.5956 deg
Mean anomaly:     182.5337 deg
Mean motion:   14.59820659 rev/day
Decay rate:       1.10e-06 rev/day^2
Epoch rev:           21831
Checksum:              354

Satellite: FALCON
Catalog number: 30776
Epoch time:      09337.85312239
Element set:     714
Inclination:      035.4328 deg
RA of node:       149.9268 deg
Eccentricity:    0.0002123
Arg of perigee:   315.8072 deg
Mean anomaly:     044.2474 deg
Mean motion:   15.03384899 rev/day
Decay rate:       4.27e-06 rev/day^2
Epoch rev:           15064
Checksum:              301

Satellite: MAST
Catalog number: 31126
Epoch time:      09337.72417908
Element set:     746
Inclination:      097.9667 deg
RA of node:       024.5605 deg
Eccentricity:    0.0095629
Arg of perigee:   113.3220 deg
Mean anomaly:     247.8060 deg
Mean motion:   14.53535376 rev/day
Decay rate:       -2.5e-07 rev/day^2
Epoch rev:           13966
Checksum:              311

Satellite: CAPE1
Catalog number: 31130
Epoch time:      09337.86099416
Element set:     758
Inclination:      097.9690 deg
RA of node:       022.5032 deg
Eccentricity:    0.0103704
Arg of perigee:   119.4572 deg
Mean anomaly:     241.7009 deg
Mean motion:   14.52110946 rev/day
Decay rate:       -5.2e-07 rev/day^2
Epoch rev:           13931
Checksum:              283

Satellite: COMPASS
Catalog number: 32787
Epoch time:      09337.74538828
Element set:     533
Inclination:      097.9236 deg
RA of node:       039.9519 deg
Eccentricity:    0.0015499
Arg of perigee:   197.9119 deg
Mean anomaly:     162.1550 deg
Mean motion:   14.81707537 rev/day
Decay rate:       3.36e-06 rev/day^2
Epoch rev:            8655
Checksum:              350

Satellite: AAUSAT2
Catalog number: 32788
Epoch time:      09336.82110264
Element set:     526
Inclination:      097.9231 deg
RA of node:       039.1249 deg
Eccentricity:    0.0015123
Arg of perigee:   202.3075 deg
Mean anomaly:     157.7469 deg
Mean motion:   14.81837155 rev/day
Decay rate:       5.37e-06 rev/day^2
Epoch rev:            8642
Checksum:              304

Satellite: DO-64
Catalog number: 32789
Epoch time:      09337.78692969
Element set:     543
Inclination:      097.9287 deg
RA of node:       040.3634 deg
Eccentricity:    0.0015345
Arg of perigee:   197.2935 deg
Mean anomaly:     162.7756 deg
Mean motion:   14.81875920 rev/day
Decay rate:       2.33e-06 rev/day^2
Epoch rev:            8656
Checksum:              367

Satellite: CO-66
Catalog number: 32791
Epoch time:      09337.20064529
Element set:     523
Inclination:      097.9244 deg
RA of node:       039.4433 deg
Eccentricity:    0.0015502
Arg of perigee:   198.6476 deg
Mean anomaly:     161.4161 deg
Mean motion:   14.81520340 rev/day
Decay rate:       1.15e-06 rev/day^2
Epoch rev:            8643
Checksum:              295

Satellite: RS-30
Catalog number: 32953
Epoch time:      09336.57397407
Element set:     467
Inclination:      082.4996 deg
RA of node:       151.9307 deg
Eccentricity:    0.0018863
Arg of perigee:   169.7148 deg
Mean anomaly:     190.4323 deg
Mean motion:   12.43003025 rev/day
Decay rate:        1.0e-07 rev/day^2
Epoch rev:            6931
Checksum:              304

Satellite: TACSAT-3
Catalog number: 35001
Epoch time:      09336.97043651
Element set:    0169
Inclination:      040.4574 deg
RA of node:       310.8061 deg
Eccentricity:    0.0024417
Arg of perigee:   335.8612 deg
Mean anomaly:     024.1057 deg
Mean motion:   15.39708638 rev/day
Decay rate:      3.698e-05 rev/day^2
Epoch rev:           03036
Checksum:              289

Satellite: PHARMSAT
Catalog number: 35002
Epoch time:      09335.38292576
Element set:    0155
Inclination:      040.4699 deg
RA of node:       319.1963 deg
Eccentricity:    0.0027282
Arg of perigee:   328.2990 deg
Mean anomaly:     031.6181 deg
Mean motion:   15.40406094 rev/day
Decay rate:      3.477e-05 rev/day^2
Epoch rev:           03012
Checksum:              289

Satellite: HAWKSAT1
Catalog number: 35003
Epoch time:      09336.98038454
Element set:    0159
Inclination:      040.4648 deg
RA of node:       308.2507 deg
Eccentricity:    0.0026657
Arg of perigee:   344.2264 deg
Mean anomaly:     015.7672 deg
Mean motion:   15.41586020 rev/day
Decay rate:      5.794e-05 rev/day^2
Epoch rev:           03039
Checksum:              299

Satellite: CP6
Catalog number: 35004
Epoch time:      09336.97333558
Element set:    0156
Inclination:      040.4654 deg
RA of node:       308.2055 deg
Eccentricity:    0.0025647
Arg of perigee:   344.0926 deg
Mean anomaly:     015.9051 deg
Mean motion:   15.41779124 rev/day
Decay rate:      6.759e-05 rev/day^2
Epoch rev:           03038
Checksum:              303

